Orbital Elements at Epoch 2455051.5 (2009-Aug-08.0) TDB
Reference: JPL 29 (heliocentric ecliptic J2000)
Element | Value | Uncertainty (1-sigma) | Units |
e | .6209634646215445 | 6.5898e-07 | |
a | 3.419529284620579 | 6.0142e-06 | au |
q | 1.296126532667753 | 9.112e-07 | au |
i | 16.15830886183106 | 1.9575e-05 | deg |
node | 259.3038957648595 | 2.5507e-05 | deg |
peri | 346.9555947376026 | 0.00012283 | deg |
M | 12.19570484817778 | 3.2751e-05 | deg |
tp | 2454973.255769739973 (2009-May-21.75576974) | 0.0001047 | TDB |
period | 2309.659281219684 6.32 | 0.0060932 1.668e-05 | d yr |
n | .1558671458284926 | 4.112e-07 | deg/d |
Q | 5.542932036573406 | 9.7488e-06 | au |
|
Additional Model Parameters
Parameter | Value | Uncertainty (1-sigma) |
A1 [EST] | 1.558703317998703E-9 | 6.638E-10 |
A2 [EST] | -2.718059320187587E-10 | 4.701E-12 |
|
| | Orbit Determination Parameters
Additional Information
|